Location: Borovka
(49.7741°N, 14.5280°E)
Time: 07:05:10
(UTC+00:00)

COSMO-SKYMED 1 - Pass Details

Date: 17 November 2025
Orbit: 579 x 581 km, 97.9° (Epoch: 10 December)

Event Time Altitude Azimuth Distance (km) Brightness Sun altitude
Exits shadow 17:21:13 49° 53° (NE) 756 2.6 -20.0°
Maximum altitude 17:22:02 60° 101° (ESE) 668 2.4 -20.1°
Drops below altitude 10° 17:26:05 10° 182° (S) 1,891 5.1 -20.8°
Sets 17:28:15 0° 186° (S) 2,785 6.1 -21.1°
